Location: Cheyres
(46.8153°N, 6.7877°E)
Time: 23:22:13
(UTC+00:00)

Cosmos 1703 Rocket - Pass Details

Date: 11 May 2021
Orbit: 605 x 633 km, 82.5° (Epoch: 23 June)

Event Time Altitude Azimuth Distance (km) Brightness Sun altitude
Exits shadow 23:48:51 41° 283° (WNW) 904 4.4 -24.9°
Maximum altitude 23:48:53 41° 285° (WNW) 904 4.4 -24.9°
Drops below altitude 10° 23:53:05 10° 356° (N) 1,999 7.2 -24.8°
Sets 23:55:27 0° 4° (N) 2,915 8.4 -24.8°
